Location: Sternwarte auf dem Internationalen Platz Vogelsang IP
(50.5721°N, 6.4398°E)
Time: 18:34:52
(UTC+01:00)

A-11 Canister half - Pass Details

Date: 11 December 2025
Orbit: 1511 x 1688 km, 47.2° (Epoch: 19 January)

Event Time Altitude Azimuth Distance (km) Brightness Sun altitude
Rises 14:00:49 0° 177° (S) 4,645 12.8 13.6°
Reaches altitude 10° 14:05:36 10° 156° (SSE) 3,686 11.8 13.3°
Maximum altitude 14:10:13 15° 125° (SE) 3,335 11.0 13.0°
Drops below altitude 10° 14:14:53 10° 95° (E) 3,749 10.9 12.7°
Sets 14:19:47 0° 74° (ENE) 4,774 11.2 12.3°
